Regional Weather Roundup
Issued by NWS Raleigh/Durham, NC

Home | Current Version | Previous Version | Text Only | Print | Product List | Glossary On
Versions: 1 2 3 4 5 6 7 8 9 10 11 12 13 14 15 16 17 18 19 20 21 22 23 24 25 26 27 28 29 30 31 32 33 34 35 36 37 38 39 40 41 42 43 44 45 46 47 48 49 50
000
ASUS42 KRAH 010510
RWRRAH
NORTH CAROLINA WEATHER ROUNDUP
NATIONAL WEATHER SERVICE RALEIGH NC
100 AM EDT WED JUL 01 2015

NOTE: "FAIR" INDICATES FEW OR NO CLOUDS BELOW 12,000 FEET WITH NO
SIGNIFICANT WEATHER AND/OR OBSTRUCTIONS TO VISIBILITY.

NCZ001-053-055-056-065-067-010600-
WESTERN NORTH CAROLINA

CITY           SKY/WX    TMP DP  RH WIND       PRES   REMARKS
ASHEVILLE      NOT AVBL
JEFFERSON      PTCLDY    65  56  70 W5        30.04S
MORGANTON      PTCLDY    64  64 100 SW3       30.02S
HICKORY        NOT AVBL
RUTHERFORDTON  FOG       65  65 100 CALM      29.98S VSB 1
MOUNT AIRY     PTCLDY    73  62  66 CALM      29.95F
BOONE          PTCLDY    65  58  79 CALM      30.06S
$$

NCZ021-022-025-041-071-084-088-010600-
CENTRAL NORTH CAROLINA

CITY           SKY/WX    TMP DP  RH WIND       PRES   REMARKS
CHARLOTTE      NOT AVBL
GREENSBORO     CLOUDY    71  63  75 SW8       29.93S
WINSTON-SALEM  NOT AVBL
RALEIGH-DURHAM NOT AVBL
FORT BRAGG     MOCLDY    71  67  89 SW6       29.93S
FAYETTEVILLE   NOT AVBL
BURLINGTON     NOT AVBL
LAURINBURG     NOT AVBL
$$

NCZ011-015-027-028-043-044-047-080-103-010600-
NORTHEASTERN NORTH CAROLINA

CITY           SKY/WX    TMP DP  RH WIND       PRES   REMARKS
ROCKY MT-WILSO NOT AVBL
GREENVILLE     CLOUDY    77  68  73 SW3       29.94S
WASHINGTON     CLOUDY    76  66  69 CALM      29.93S
ELIZABETH CITY NOT AVBL
MANTEO         MOCLDY    80  69  70 SW13      29.92F
CAPE HATTERAS  NOT AVBL
$$

NCZ078-087-090-091-093-098-101-010600-
SOUTHEASTERN NORTH CAROLINA

CITY           SKY/WX    TMP DP  RH WIND       PRES   REMARKS
LUMBERTON      NOT AVBL
GOLDSBORO      CLOUDY    71  69  95 S5        29.92R
KINSTON        MOCLDY    75  66  73 SW6       29.94R
KENANSVILLE    CLOUDY    72  66  79 SW3       29.96R
NEW BERN       NOT AVBL
CHERRY POINT   CLOUDY    79  71  76 S8        29.95F
BEAUFORT       MOCLDY    80  75  84 SW15G24   29.95F
JACKSONVILLE   CLOUDY    78  71  79 S7        29.93F
WILMINGTON     NOT AVBL
$$



USA.gov is the U.S. government's official web portal to all federal, state and local government web resources and services.